[[{"header":{"parameterUnit":"m.s-1","parameterCategory":2,"la1":30.2991,"la2":30.254,"lo1":-89.0895,"lo2":-89.0444,"dy":0.0017,"dx":0.0017,"nx":28,"ny":28,"refTime":"2026-01-04T03:00:00:Z","depth":"0","parameterNumber":2,"parameterNumberName":"U-component_of_CURRENTS"},"data":[0,0,0,0,0,0,0,0,0,0,0,0,0,0,0,0,0,0,0,0,0,0,0,0,0,0,0,0,0,0,0,0,0,0,0,0,0,0,0,0,0,0,0,0,0,0,0,0,0,0,0,0,0,0,0,0,0,0,0.3149,0.315,0,0.319,0.319,0.319,0.3197,0.3197,0.3197,0.3197,0.318,0.3179,0.3179,0,0,0,0,0,0,0,0,0,0,0,0,0,0.3077,0.3078,0.3149,0.315,0.3151,0.319,0.319,0.3191,0.3197,0.3197,0.3197,0.3197,0.318,0.3179,0.3179,0,0,0,0,0,0,0,0,0,0,0,0,0,0.311,0.3079,0.3149,0.3161,0.3163,0.319,0.319,0.3191,0.3197,0.3197,0.3197,0.3197,0.318,0.3179,0.3179,0.3178,0,0,0.3177,0.3177,0,0,0,0,0,0,0,0,0.3108,0.3112,0.3158,0.316,0.3162,0.3191,0.3159,0.3184,0.3197,0.3181,0.3197,0.3197,0.318,0.318,0.3184,0.3177,0.3176,0.3177,0.3177,0.3176,0.3176,0,0,0,0,0,0,0,0.3105,0.311,0.3162,0.3159,0.3162,0.3165,0.3169,0.3164,0.3177,0.3183,0.3184,0.3193,0.318,0.3185,0.3184,0.3176,0.3177,0.3177,0.3176,0.3176,0.3215,0.3216,0,0,0,0,0,0,0.3107,0.3108,0.3161,0.3164,0.3137,0.3166,0.3171,0.3179,0.3179,0.318,0.3193,0.3193,0.3186,0.3184,0.3183,0.3214,0.3177,0.3176,0.3176,0.3213,0.3215,0.3216,0,0,0,0,0,0,0.3105,0.3111,0.316,0.3139,0.3146,0.3168,0.3178,0.318,0.3188,0.3188,0.3187,0.3199,0.3186,0.3184,0.3192,0.3211,0.3176,0.3175,0.3212,0.3214,0.3216,0.3254,0,0,0,0,0,0,0.3103,0.311,0.3113,0.3139,0.3147,0.3183,0.3178,0.3181,0.3195,0.3196,0.3192,0.3191,0.3185,0.3193,0.3191,0.321,0.3175,0.321,0.3213,0.3215,0.3251,0.3257,0.3262,0,0,0,0,0,0.31,0.3104,0.3113,0.312,0.3152,0.3184,0.3188,0.3201,0.3196,0.3205,0.3206,0.3191,0.3209,0.3193,0.3191,0.321,0.3209,0.3212,0.3215,0.3248,0.3255,0.3262,0,0,0,0,0,0,0.3066,0.3106,0.3116,0.313,0.316,0.3186,0.3195,0.3203,0.3211,0.3209,0.3201,0.32,0.3221,0.321,0.3194,0.3232,0.3209,0.3212,0.3235,0.3242,0.3247,0.326,0.3174,0,0,0,0,0,0.3063,0.3081,0.3119,0.313,0.3146,0.3171,0.3183,0.3197,0.3211,0.3214,0.3215,0.3219,0.3232,0.3231,0.324,0.325,0.3256,0.3265,0.327,0.3275,0.3286,0.3324,0.3334,0.3226,0.3226,0.3226,0,0,0.3052,0.3078,0.3086,0.3125,0.3147,0.3177,0.3177,0.3203,0.3226,0.321,0.3233,0.3239,0.3241,0.3264,0.3271,0.3255,0.3307,0.3279,0.3283,0.3291,0.3328,0.3338,0.3348,0.3229,0.3228,0.3228,0,0,0.3046,0.3065,0.3083,0.3113,0.3156,0.3178,0.3187,0.3222,0.3236,0.3259,0.3264,0.3285,0.3287,0.3307,0.3312,0.3353,0.3341,0.3352,0.3382,0.3419,0.3428,0.3436,0.3447,0.3456,0.3349,0.3349,0.3349,0,0.3033,0.306,0.3092,0.3122,0.3147,0.318,0.3207,0.3233,0.3265,0.3282,0.3271,0.3316,0.3313,0.3357,0.3373,0.3366,0.3375,0.3352,0.3426,0.3434,0.3442,0.3451,0.346,0.3351,0.3351,0.335,0.335,0,0.3048,0.3071,0.3085,0.3139,0.317,0.3198,0.3245,0.3275,0.3291,0.3316,0.3363,0.3373,0.3401,0.3406,0.3397,0.3456,0.344,0.3433,0.3407,0.3455,0.3461,0.347,0.3354,0.3353,0.3353,0.3352,0,0,0.3005,0.3082,0.3083,0.3109,0.3181,0.3203,0.3258,0.3313,0.3346,0.3381,0.3424,0.3456,0.3469,0.3479,0.3483,0.351,0.3563,0.3493,0.3494,0.3499,0.363,0.3593,0.3599,0.3568,0.357,0.3572,0.3608,0,0.3006,0.3053,0.3098,0.3141,0.317,0.3229,0.3271,0.3327,0.3375,0.3427,0.3463,0.3503,0.3496,0.3511,0.3545,0.3568,0.3591,0.3553,0.3586,0.3587,0.3546,0.361,0.3498,0.352,0.3617,0.3618,0.3619,0,0.3,0.3034,0.3075,0.3142,0.3159,0.319,0.3269,0.3317,0.3409,0.345,0.3517,0.3548,0.3614,0.3589,0.3664,0.364,0.364,0.3647,0.3649,0.3611,0.3568,0.349,0.3532,0.3465,0.3633,0.3632,0.3631,0,0.2942,0.3012,0.304,0.3065,0.315,0.3174,0.3219,0.3312,0.337,0.3473,0.3527,0.3605,0.3651,0.3684,0.3714,0.3692,0.3782,0.3749,0.3714,0.371,0.362,0.3605,0.3598,0.3794,0.3793,0.3793,0.3793,0,0.2919,0.2935,0.3009,0.3021,0.3054,0.3126,0.3177,0.3249,0.3362,0.3419,0.3529,0.3594,0.3679,0.3741,0.3744,0.3771,0.3811,0.3739,0.3731,0.3628,0.3615,0.3555,0.3524,0.3795,0.3794,0.3794,0.3794,0,0.2847,0.29,0.2931,0.3004,0.3027,0.3045,0.3151,0.3193,0.3317,0.3403,0.344,0.3609,0.3692,0.3764,0.3824,0.381,0.3734,0.3819,0.3686,0.3662,0.3547,0.3522,0.3386,0.3277,0.3784,0.3783,0.3783,0,0.2814,0.2823,0.2895,0.2906,0.2935,0.298,0.3012,0.3149,0.3208,0.339,0.3423,0.3568,0.3646,0.3767,0.3787,0.3814,0.37,0.3695,0.3634,0.3545,0.3512,0.3375,0.3282,0.3521,0.3519,0.3517,0.3515,0,0.2742,0.2768,0.2794,0.2818,0.2845,0.2881,0.2939,0.2993,0.3135,0.3227,0.3337,0.3425,0.359,0.361,0.3692,0.3684,0.3534,0.3652,0.3601,0.335,0.316,0.3048,0.348,0.3497,0.3499,0.35,0.3501,0.3502,0.2676,0.267,0.2697,0.2711,0.274,0.2746,0.2746,0.283,0.2904,0.3015,0.3166,0.3257,0.3411,0.3538,0.3517,0.3448,0.3411,0.3344,0.3333,0.3211,0.3065,0.3452,0.3438,0.3439,0.3441,0.3442,0.3443,0,0.257,0.2571,0.2582,0.2588,0.2571,0.2623,0.2664,0.2656,0.2683,0.2833,0.2924,0.3054,0.3134,0.3235,0.3273,0.3161,0.3004,0.3067,0.2857,0.279,0.3183,0.3133,0.3002,0.3002,0.3002,0.3002,0.3003,0.3003,0.2509,0.2473,0.2477,0.2408,0.2411,0.2358,0.2355,0.2371,0.245,0.2521,0.2598,0.2723,0.2979,0.3132,0.3066,0.2977,0.2734,0.2614,0.2589,0.2902,0.2927,0.295,0.2897,0.2718,0.2718,0.2074,0.207,0.2066]},{"header":{"parameterUnit":"m.s-1","parameterCategory":2,"la1":30.2991,"la2":30.254,"lo1":-89.0895,"lo2":-89.0444,"dy":0.0017,"dx":0.0017,"nx":28,"ny":28,"refTime":"2026-01-04T03:00:00:Z","depth":"0","parameterNumber":3,"parameterNumberName":"V-component_of_CURRENTS"},"data":[0,0,0,0,0,0,0,0,0,0,0,0,0,0,0,0,0,0,0,0,0,0,0,0,0,0,0,0,0,0,0,0,0,0,0,0,0,0,0,0,0,0,0,0,0,0,0,0,0,0,0,0,0,0,0,0,0,0,-0.0366,-0.0367,0,-0.0445,-0.0447,-0.0448,-0.0508,-0.0508,-0.0509,-0.0509,-0.0605,-0.0607,-0.0609,0,0,0,0,0,0,0,0,0,0,0,0,0,-0.0316,-0.0317,-0.0366,-0.0367,-0.0368,-0.0445,-0.0447,-0.0448,-0.0508,-0.0508,-0.0509,-0.0509,-0.0604,-0.0607,-0.061,0,0,0,0,0,0,0,0,0,0,0,0,0,-0.0363,-0.0317,-0.0366,-0.0405,-0.0409,-0.0445,-0.0447,-0.0448,-0.0508,-0.0508,-0.0509,-0.0509,-0.0603,-0.0607,-0.061,-0.0621,0,0,-0.062,-0.0622,0,0,0,0,0,0,0,0,-0.036,-0.0365,-0.0399,-0.0403,-0.0407,-0.0465,-0.0464,-0.0506,-0.0508,-0.0473,-0.0509,-0.051,-0.0558,-0.0565,-0.0582,-0.0626,-0.063,-0.0621,-0.0623,-0.0624,-0.0625,0,0,0,0,0,0,0,-0.0357,-0.0362,-0.04,-0.0399,-0.0405,-0.0435,-0.0442,-0.0473,-0.0514,-0.0476,-0.048,-0.0485,-0.0561,-0.0579,-0.0585,-0.0631,-0.0621,-0.0624,-0.0626,-0.0627,-0.0693,-0.0693,0,0,0,0,0,0,-0.0339,-0.0359,-0.0398,-0.0402,-0.0382,-0.0435,-0.0443,-0.0448,-0.0514,-0.0523,-0.0484,-0.0487,-0.0573,-0.0581,-0.0588,-0.0593,-0.0624,-0.0627,-0.0629,-0.0694,-0.0693,-0.0693,0,0,0,0,0,0,-0.0337,-0.0342,-0.0395,-0.0381,-0.0389,-0.0435,-0.044,-0.0449,-0.0465,-0.0519,-0.053,-0.0489,-0.0573,-0.0584,-0.0606,-0.0598,-0.0629,-0.0632,-0.0694,-0.0694,-0.0693,-0.061,0,0,0,0,0,0,-0.0336,-0.0341,-0.0337,-0.0379,-0.0389,-0.0405,-0.044,-0.0451,-0.0466,-0.047,-0.0527,-0.0537,-0.0575,-0.06,-0.0609,-0.0603,-0.0635,-0.0694,-0.0694,-0.0693,-0.0613,-0.0607,-0.0602,0,0,0,0,0,-0.0334,-0.0321,-0.0336,-0.0341,-0.0383,-0.0404,-0.0412,-0.0449,-0.0465,-0.0466,-0.0502,-0.0535,-0.0604,-0.0603,-0.0613,-0.0608,-0.0695,-0.0694,-0.0693,-0.0616,-0.0608,-0.0602,0,0,0,0,0,0,-0.0296,-0.0327,-0.0344,-0.0342,-0.0367,-0.0413,-0.0415,-0.044,-0.0471,-0.0473,-0.0528,-0.0539,-0.0558,-0.0593,-0.059,-0.0627,-0.0656,-0.0658,-0.0594,-0.0587,-0.0581,-0.0551,-0.0637,0,0,0,0,0,-0.0285,-0.0287,-0.0321,-0.032,-0.0327,-0.0369,-0.0382,-0.0405,-0.0437,-0.0452,-0.0491,-0.0532,-0.0565,-0.0582,-0.0617,-0.0632,-0.065,-0.0638,-0.0632,-0.0626,-0.061,-0.0634,-0.0628,-0.0691,-0.0691,-0.0691,0,0,-0.0271,-0.0287,-0.0289,-0.0312,-0.0335,-0.0332,-0.0379,-0.0389,-0.0388,-0.0456,-0.0467,-0.0512,-0.0564,-0.0583,-0.0595,-0.061,-0.0616,-0.0626,-0.0621,-0.0607,-0.0632,-0.0626,-0.062,-0.0691,-0.0691,-0.0691,0,0,-0.0235,-0.0256,-0.0241,-0.0255,-0.0277,-0.03,-0.0297,-0.0337,-0.0356,-0.0372,-0.0421,-0.0454,-0.0507,-0.054,-0.0565,-0.0547,-0.0584,-0.0566,-0.0511,-0.0534,-0.0529,-0.0524,-0.0525,-0.0521,-0.0562,-0.0562,-0.0562,0,-0.0215,-0.0202,-0.0239,-0.0226,-0.0225,-0.0278,-0.0255,-0.0283,-0.0325,-0.0332,-0.0363,-0.0435,-0.0484,-0.0502,-0.0501,-0.0532,-0.0544,-0.0531,-0.0524,-0.0521,-0.0517,-0.0519,-0.0516,-0.0558,-0.0559,-0.0559,-0.0559,0,-0.0167,-0.0156,-0.0147,-0.0146,-0.0151,-0.0142,-0.0175,-0.0186,-0.0217,-0.0248,-0.0277,-0.0347,-0.0387,-0.0416,-0.0454,-0.0458,-0.0472,-0.0512,-0.0536,-0.0505,-0.051,-0.0508,-0.0552,-0.0554,-0.0555,-0.0556,0,0,-0.0114,-0.0112,-0.0105,-0.0088,-0.0105,-0.0099,-0.0095,-0.0104,-0.0092,-0.0155,-0.0146,-0.0224,-0.0268,-0.0298,-0.0359,-0.0385,-0.0378,-0.0432,-0.0435,-0.0419,-0.0408,-0.0414,-0.0413,-0.0418,-0.0417,-0.0417,-0.0414,0,-0.006,-0.0011,-0.0027,0.0022,0.0047,0.0009,0.0019,0.0001,-0.0026,-0.0034,-0.0115,-0.0139,-0.0222,-0.024,-0.0279,-0.0352,-0.0371,-0.0374,-0.0451,-0.0452,-0.0451,-0.0411,-0.0392,-0.0388,-0.0413,-0.0413,-0.0412,0,0.0001,0.0027,0.0084,0.0113,0.0121,0.0137,0.0157,0.0157,0.0124,0.0103,0.006,-0.0005,-0.0056,-0.0134,-0.023,-0.0227,-0.0302,-0.0365,-0.0367,-0.0398,-0.0455,-0.0428,-0.0385,-0.0546,-0.041,-0.041,-0.041,0,0.0068,0.0111,0.0162,0.0169,0.0185,0.0205,0.0212,0.0198,0.0227,0.019,0.0208,0.0118,0.0095,-0.0021,-0.0158,-0.019,-0.0255,-0.032,-0.0392,-0.0393,-0.0405,-0.0407,-0.0515,-0.0377,-0.0377,-0.0377,-0.0377,0,0.0135,0.0179,0.0195,0.0221,0.029,0.0271,0.0338,0.0325,0.0342,0.0396,0.0282,0.0316,0.0122,0.0053,-0.0096,-0.0221,-0.0208,-0.0361,-0.039,-0.0375,-0.0375,-0.0539,-0.065,-0.0377,-0.0377,-0.0377,-0.0377,0,0.0197,0.0206,0.0267,0.03,0.032,0.0364,0.0433,0.0484,0.0475,0.0548,0.0545,0.0484,0.0394,0.0204,0.0037,-0.0116,-0.0346,-0.0308,-0.0265,-0.0289,-0.0522,-0.0628,-0.0765,-0.0831,-0.0382,-0.0382,-0.0382,0,0.0233,0.0268,0.0331,0.0383,0.0402,0.047,0.0526,0.0546,0.0623,0.0665,0.0723,0.0656,0.0649,0.0402,0.0114,-0.0129,-0.0316,-0.029,-0.0363,-0.0511,-0.0652,-0.0732,-0.0784,-0.0339,-0.0339,-0.0339,-0.0339,0,0.0306,0.032,0.0374,0.0478,0.0549,0.0642,0.0731,0.082,0.0858,0.0935,0.1036,0.1034,0.0786,0.0561,0.0195,-0.0002,-0.0408,-0.0293,-0.0465,-0.0632,-0.0709,-0.0793,-0.0356,-0.0337,-0.0337,-0.0337,-0.0337,-0.0337,0.0362,0.0417,0.049,0.0594,0.0681,0.0812,0.0921,0.1039,0.1187,0.1328,0.1295,0.133,0.0942,0.0459,0.0171,-0.0364,-0.0389,-0.0531,-0.0644,-0.0708,-0.0787,-0.0331,-0.0343,-0.0343,-0.0343,-0.0343,-0.0343,0,0.045,0.0513,0.0611,0.0739,0.0858,0.0884,0.1065,0.1195,0.1401,0.151,0.1608,0.1427,0.0969,0.0453,-0.0261,-0.0636,-0.0791,-0.0858,-0.0981,-0.1015,-0.0615,-0.0629,-0.0682,-0.0682,-0.0682,-0.0681,-0.0681,-0.0681,0.0501,0.0614,0.0664,0.0873,0.0971,0.1154,0.1271,0.1459,0.1588,0.175,0.1765,0.1735,0.1313,0.0059,-0.079,-0.0996,-0.1273,-0.1342,-0.1474,-0.1226,-0.1204,-0.1184,-0.1222,-0.1399,-0.14,-0.1808,-0.1813,-0.1816]}],[{"header":{"parameterUnit":"m.s-1","parameterCategory":2,"la1":30.2991,"la2":30.254,"lo1":-89.0895,"lo2":-89.0444,"dy":0.0017,"dx":0.0017,"nx":28,"ny":28,"refTime":"2026-01-04T03:00:00:Z","depth":"2","parameterNumber":2,"parameterNumberName":"U-component_of_CURRENTS"},"data":[0,0,0,0,0,0,0,0,0,0,0,0,0,0,0,0,0,0,0,0,0,0,0,0,0,0,0,0,0,0,0,0,0,0,0,0,0,0,0,0,0,0,0,0,0,0,0,0,0,0,0,0,0,0,0,0,0,0,0.2671,0.2672,0,0.2735,0.2735,0.2736,0.2775,0.2775,0.2775,0.2775,0.279,0.2791,0.2791,0,0,0,0,0,0,0,0,0,0,0,0,0,0.2611,0.2612,0.2671,0.2672,0.2673,0.2734,0.2735,0.2736,0.2775,0.2775,0.2775,0.2775,0.279,0.2791,0.2791,0,0,0,0,0,0,0,0,0,0,0,0,0,0.2653,0.2612,0.2671,0.2698,0.2701,0.2734,0.2735,0.2737,0.2775,0.2775,0.2775,0.2775,0.279,0.2791,0.2791,0.2792,0,0,0.2793,0.2793,0,0,0,0,0,0,0,0,0.2651,0.2656,0.2694,0.2696,0.27,0.2746,0.272,0.2752,0.2775,0.2748,0.2775,0.2775,0.277,0.2772,0.2787,0.2793,0.2794,0.2793,0.2793,0.2793,0.2793,0,0,0,0,0,0,0,0.2648,0.2653,0.2698,0.2694,0.2698,0.2716,0.2722,0.2727,0.2758,0.2751,0.2753,0.2758,0.2772,0.2786,0.2787,0.2794,0.2793,0.2793,0.2794,0.2794,0.2858,0.2859,0,0,0,0,0,0,0.2636,0.265,0.2696,0.27,0.2673,0.2717,0.2724,0.2732,0.2759,0.2763,0.2758,0.276,0.2785,0.2786,0.2788,0.2832,0.2793,0.2794,0.2794,0.2857,0.2858,0.286,0,0,0,0,0,0,0.2634,0.2639,0.2693,0.2675,0.2683,0.2718,0.2727,0.2733,0.2768,0.2765,0.2769,0.2788,0.2785,0.2787,0.2802,0.2831,0.2794,0.2795,0.2855,0.2857,0.2859,0.2894,0,0,0,0,0,0,0.2632,0.2638,0.2649,0.2674,0.2684,0.2724,0.2727,0.2734,0.2769,0.2772,0.2791,0.2792,0.2785,0.2801,0.2803,0.2831,0.2795,0.2853,0.2856,0.2858,0.2891,0.2897,0.2903,0,0,0,0,0,0.263,0.2637,0.2649,0.2655,0.2694,0.2724,0.2732,0.2757,0.277,0.2789,0.2798,0.2793,0.282,0.2802,0.2804,0.2833,0.2852,0.2855,0.2858,0.2889,0.2896,0.2902,0,0,0,0,0,0,0.2611,0.2643,0.2656,0.2672,0.2702,0.2731,0.2751,0.2771,0.2796,0.2799,0.2801,0.2802,0.2837,0.2827,0.2809,0.2862,0.2839,0.2843,0.2862,0.2869,0.2874,0.2886,0.2795,0,0,0,0,0,0.2613,0.2632,0.2662,0.2677,0.2695,0.273,0.2749,0.2766,0.2786,0.28,0.2816,0.283,0.2849,0.2851,0.2868,0.2883,0.2886,0.2907,0.2912,0.2917,0.2929,0.295,0.2958,0.287,0.287,0.287,0,0,0.2607,0.2629,0.2638,0.2676,0.2704,0.2731,0.2743,0.2775,0.2799,0.2794,0.2837,0.2856,0.2861,0.2888,0.2902,0.2881,0.2946,0.2921,0.2925,0.2935,0.2954,0.2962,0.297,0.2872,0.2872,0.2872,0,0,0.2605,0.2631,0.2649,0.2678,0.272,0.274,0.2755,0.2798,0.2823,0.2852,0.2869,0.29,0.2919,0.2936,0.2942,0.2987,0.2984,0.3,0.3024,0.3044,0.3051,0.3057,0.3077,0.3084,0.299,0.299,0.299,0,0.26,0.2624,0.2659,0.2687,0.271,0.2748,0.2772,0.2803,0.2845,0.287,0.2867,0.2941,0.2942,0.2988,0.3004,0.3,0.3011,0.2994,0.305,0.3056,0.3062,0.308,0.3089,0.2992,0.2992,0.2992,0.2991,0,0.261,0.2637,0.2653,0.2701,0.2733,0.2758,0.2801,0.2839,0.2869,0.29,0.2967,0.2983,0.3025,0.3037,0.3028,0.3086,0.3081,0.3063,0.3029,0.3073,0.309,0.3098,0.2995,0.2994,0.2994,0.2993,0,0,0.2571,0.2645,0.2651,0.2676,0.2741,0.2762,0.2813,0.2866,0.2906,0.2955,0.3008,0.3056,0.3087,0.3099,0.3113,0.3128,0.3174,0.3114,0.3114,0.3127,0.3225,0.3184,0.3188,0.3164,0.3166,0.3167,0.3221,0,0.2568,0.2615,0.2655,0.2697,0.2725,0.278,0.2825,0.288,0.293,0.299,0.3037,0.3094,0.3104,0.3131,0.3155,0.3179,0.3196,0.3162,0.3186,0.3187,0.314,0.3196,0.2958,0.2983,0.3228,0.3229,0.323,0,0.2564,0.2594,0.2637,0.2702,0.272,0.2752,0.2832,0.2877,0.297,0.3018,0.3094,0.3135,0.3204,0.3184,0.3259,0.3239,0.324,0.3246,0.3247,0.3203,0.316,0.298,0.2988,0.3243,0.3242,0.3241,0.324,0,0.2518,0.2581,0.2613,0.2636,0.2716,0.2746,0.2789,0.2884,0.2941,0.3043,0.3099,0.3184,0.3237,0.3265,0.3302,0.328,0.3364,0.3324,0.3292,0.3288,0.3089,0.3066,0.3361,0.3361,0.3361,0.3361,0.336,0,0.2501,0.2514,0.2593,0.2608,0.2647,0.2716,0.2779,0.2844,0.2951,0.3013,0.3114,0.3182,0.326,0.3319,0.3325,0.3353,0.3387,0.3317,0.3306,0.3096,0.3074,0.3296,0.3288,0.3363,0.3362,0.3362,0.3361,0,0.2439,0.2496,0.2521,0.2598,0.263,0.2652,0.2766,0.2806,0.2931,0.3015,0.3052,0.32,0.3281,0.3351,0.3401,0.3385,0.3402,0.3393,0.3151,0.3111,0.3303,0.3296,0.3357,0.3356,0.3355,0.3354,0.3354,0,0.2407,0.2429,0.2501,0.2516,0.2547,0.2607,0.265,0.2781,0.2833,0.3012,0.3037,0.3173,0.3242,0.3347,0.3345,0.3367,0.3405,0.3139,0.3049,0.3323,0.3306,0.33,0.3295,0.2796,0.2791,0.2787,0.2784,0,0.2344,0.2379,0.2401,0.2437,0.2473,0.2517,0.2587,0.2632,0.2773,0.2864,0.2968,0.3043,0.3174,0.3111,0.3173,0.3142,0.3119,0.3056,0.3402,0.2844,0.2801,0.2782,0.2794,0.2747,0.275,0.2753,0.2755,0.2757,0.2286,0.228,0.2324,0.2344,0.2382,0.2396,0.2398,0.248,0.2554,0.2644,0.2794,0.2837,0.2905,0.2891,0.2819,0.2769,0.297,0.2821,0.283,0.2844,0.278,0.2739,0.2661,0.2664,0.2667,0.2669,0.2671,0,0.2206,0.221,0.2229,0.2241,0.2229,0.2292,0.2331,0.231,0.2335,0.2451,0.2533,0.2395,0.2397,0.2455,0.234,0.2358,0.2301,0.2245,0.2139,0.218,0.2216,0.2114,0.1822,0.1818,0.1815,0.1813,0,0,0.2152,0.2127,0.2135,0.2089,0.2101,0.2052,0.2045,0.2034,0.2084,0.2074,0.2096,0.2302,0.2409,0.2085,0.2057,0.1914,0.2021,0.1842,0.2535,0.2453,0.2484,0.2574,0.2469,0,0,0,0,0]},{"header":{"parameterUnit":"m.s-1","parameterCategory":2,"la1":30.2991,"la2":30.254,"lo1":-89.0895,"lo2":-89.0444,"dy":0.0017,"dx":0.0017,"nx":28,"ny":28,"refTime":"2026-01-04T03:00:00:Z","depth":"2","parameterNumber":3,"parameterNumberName":"V-component_of_CURRENTS"},"data":[0,0,0,0,0,0,0,0,0,0,0,0,0,0,0,0,0,0,0,0,0,0,0,0,0,0,0,0,0,0,0,0,0,0,0,0,0,0,0,0,0,0,0,0,0,0,0,0,0,0,0,0,0,0,0,0,0,0,0.0135,0.0135,0,0.0064,0.0063,0.0062,-0.0,-0.0001,-0.0001,-0.0001,-0.0084,-0.0086,-0.0088,0,0,0,0,0,0,0,0,0,0,0,0,0,0.0153,0.0153,0.0135,0.0135,0.0134,0.0064,0.0063,0.0061,-0.0,-0.0001,-0.0001,-0.0002,-0.0083,-0.0086,-0.0088,0,0,0,0,0,0,0,0,0,0,0,0,0,0.0117,0.0153,0.0135,0.0097,0.0093,0.0064,0.0062,0.0061,0.0,-0.0001,-0.0001,-0.0002,-0.0083,-0.0085,-0.0088,-0.0091,0,0,-0.0096,-0.0097,0,0,0,0,0,0,0,0,0.0119,0.0116,0.0103,0.0099,0.0095,0.0042,0.0038,0.0011,0.0,0.0032,-0.0001,-0.0002,-0.0041,-0.0047,-0.0062,-0.0095,-0.0098,-0.0096,-0.0098,-0.0099,-0.01,0,0,0,0,0,0,0,0.0122,0.0119,0.0104,0.0102,0.0097,0.0061,0.0055,0.0032,-0.0002,0.003,0.0026,0.0022,-0.0043,-0.006,-0.0065,-0.01,-0.0096,-0.0099,-0.01,-0.0101,-0.0157,-0.0157,0,0,0,0,0,0,0.014,0.0122,0.0106,0.0102,0.0109,0.0061,0.0055,0.0058,-0.0001,-0.001,0.0023,0.002,-0.0055,-0.0062,-0.0068,-0.0074,-0.0099,-0.0102,-0.0103,-0.0157,-0.0157,-0.0157,0,0,0,0,0,0,0.0141,0.014,0.0109,0.0112,0.0106,0.0063,0.0065,0.0057,0.0033,-0.0006,-0.0016,0.0008,-0.0056,-0.0064,-0.0086,-0.0078,-0.0103,-0.0105,-0.0157,-0.0157,-0.0157,-0.0087,0,0,0,0,0,0,0.0142,0.0141,0.0144,0.0114,0.0106,0.0099,0.0066,0.0056,0.0034,0.0029,-0.0021,-0.003,-0.0057,-0.0082,-0.0089,-0.0082,-0.0107,-0.0157,-0.0157,-0.0157,-0.0089,-0.0084,-0.008,0,0,0,0,0,0.0143,0.0158,0.0145,0.0143,0.0114,0.01,0.0093,0.0057,0.0034,0.0031,-0.0004,-0.0029,-0.0086,-0.0084,-0.0092,-0.0085,-0.0157,-0.0157,-0.0157,-0.0091,-0.0085,-0.008,0,0,0,0,0,0,0.0166,0.0152,0.0137,0.0146,0.0127,0.0091,0.0085,0.0059,0.0027,0.002,-0.0024,-0.0034,-0.0055,-0.0079,-0.0076,-0.0102,-0.0127,-0.0128,-0.0074,-0.0069,-0.0064,-0.0044,-0.011,0,0,0,0,0,0.0175,0.018,0.0158,0.0164,0.0157,0.0118,0.0105,0.0085,0.0056,0.004,0.0005,-0.0031,-0.0059,-0.007,-0.0101,-0.0108,-0.0136,-0.0112,-0.0107,-0.0103,-0.0093,-0.0126,-0.0123,-0.0156,-0.0156,-0.0156,0,0,0.0184,0.0178,0.0179,0.0168,0.0148,0.0153,0.0108,0.0097,0.0098,0.0038,0.0023,-0.0019,-0.006,-0.0073,-0.0084,-0.0091,-0.0109,-0.0102,-0.0098,-0.009,-0.0125,-0.0122,-0.0119,-0.0156,-0.0156,-0.0156,0,0,0.0214,0.0201,0.0217,0.0207,0.0189,0.0173,0.0173,0.0139,0.0119,0.0103,0.0057,0.0026,-0.0017,-0.004,-0.0059,-0.0045,-0.0089,-0.0062,-0.0013,-0.0046,-0.0043,-0.0041,-0.0073,-0.0075,-0.0052,-0.0052,-0.0052,0,0.0225,0.0245,0.0218,0.0231,0.0232,0.0188,0.0208,0.0185,0.0148,0.0138,0.0109,0.0039,0.0002,-0.0011,-0.0009,-0.0033,-0.0062,-0.0028,-0.0038,-0.0037,-0.0036,-0.007,-0.0072,-0.0049,-0.0049,-0.005,-0.005,0,0.0268,0.028,0.0289,0.0296,0.0293,0.0302,0.0277,0.0265,0.0233,0.0208,0.0175,0.0117,0.008,0.0059,0.0029,0.0018,-0.0009,-0.0033,-0.0047,-0.0028,-0.0065,-0.0069,-0.0044,-0.0045,-0.0046,-0.0047,0,0,0.0305,0.0319,0.0321,0.0339,0.033,0.0337,0.034,0.0336,0.0342,0.0286,0.0285,0.0221,0.0178,0.0154,0.0105,0.0077,0.0054,0.0031,0.0028,0.0009,-0.0021,-0.004,-0.0047,0.0025,0.0025,0.0025,-0.0049,0,0.0348,0.0395,0.0388,0.0432,0.0456,0.0426,0.0436,0.0422,0.0396,0.0383,0.0313,0.0287,0.0218,0.0199,0.0159,0.0079,0.0047,0.0076,-0.0045,-0.0048,-0.006,-0.005,-0.0033,-0.0098,-0.0053,-0.0054,-0.0055,0,0.0393,0.0423,0.0475,0.0509,0.0515,0.053,0.0545,0.0548,0.0516,0.0493,0.045,0.039,0.0335,0.0273,0.0151,0.017,0.0084,0.0018,0.0013,-0.003,-0.0074,-0.0112,-0.0107,-0.0061,-0.0061,-0.006,-0.006,0,0.0441,0.0485,0.0533,0.0542,0.0569,0.0581,0.0591,0.0577,0.0599,0.056,0.0568,0.0477,0.0441,0.0321,0.0174,0.0162,0.004,0.0004,-0.0095,-0.0098,-0.0118,-0.0122,-0.0078,-0.0078,-0.0077,-0.0077,-0.0077,0,0.0494,0.0533,0.0557,0.0584,0.0642,0.0633,0.0686,0.0675,0.0684,0.0722,0.0625,0.0632,0.0451,0.0356,0.021,0.005,0.0062,-0.0082,-0.0116,-0.0095,-0.0095,-0.0092,-0.0093,-0.008,-0.0079,-0.0079,-0.0078,0,0.0536,0.0551,0.0613,0.0651,0.0665,0.0703,0.076,0.0803,0.079,0.0837,0.083,0.0752,0.0623,0.0438,0.0247,0.0108,-0.0051,-0.0112,-0.0075,-0.0103,-0.0178,-0.0174,-0.0229,-0.023,-0.0231,-0.0232,-0.0233,0,0.0564,0.0595,0.0662,0.0705,0.0723,0.0781,0.0828,0.0848,0.0905,0.0915,0.095,0.0845,0.0789,0.0499,0.0234,-0.0022,-0.0055,-0.0176,-0.0198,-0.0165,-0.0192,-0.0187,-0.0182,-0.0203,-0.0203,-0.0204,-0.0204,0,0.0617,0.0633,0.0686,0.077,0.083,0.0911,0.0979,0.1045,0.1074,0.1111,0.1139,0.1095,0.0822,0.0567,0.0212,0.0035,-0.0136,-0.0191,-0.0165,-0.0162,-0.0145,-0.017,-0.0165,-0.0207,-0.0207,-0.0207,-0.0206,-0.0206,0.0652,0.0698,0.076,0.0841,0.0917,0.1018,0.1096,0.1179,0.127,0.1326,0.1284,0.1219,0.0929,0.0478,0.017,-0.016,-0.0145,-0.0263,-0.026,-0.0257,-0.0236,-0.0221,-0.0293,-0.0293,-0.0294,-0.0294,-0.0294,0,0.069,0.0742,0.0826,0.0927,0.1017,0.1051,0.1183,0.1257,0.1366,0.1415,0.1431,0.1152,0.0863,0.0525,0.0042,-0.0242,-0.0266,-0.0337,-0.03,-0.0295,-0.0291,-0.027,-0.0338,-0.0339,-0.034,-0.0341,0,0,0.0713,0.0792,0.0835,0.0981,0.1061,0.1187,0.1268,0.1368,0.143,0.1469,0.1439,0.1376,0.0966,0.0614,0.0221,-0.0058,-0.0113,-0.0119,-0.0054,0.004,0.0048,-0.0222,-0.018,0,0,0,0,0]}],[{"header":{"parameterUnit":"m.s-1","parameterCategory":2,"la1":30.2991,"la2":30.254,"lo1":-89.0895,"lo2":-89.0444,"dy":0.0017,"dx":0.0017,"nx":28,"ny":28,"refTime":"2026-01-04T03:00:00:Z","depth":"4","parameterNumber":2,"parameterNumberName":"U-component_of_CURRENTS"},"data":[0,0,0,0,0,0,0,0,0,0,0,0,0,0,0,0,0,0,0,0,0,0,0,0,0,0,0,0,0,0,0,0,0,0,0,0,0,0,0,0,0,0,0,0,0,0,0,0,0,0,0,0,0,0,0,0,0,0,0.1501,0.1501,0,0.1569,0.1569,0.157,0.162,0.1621,0.1621,0.1622,0.1714,0.1715,0.1717,0,0,0,0,0,0,0,0,0,0,0,0,0,0.1419,0.142,0.15,0.1502,0.1503,0.1569,0.1569,0.157,0.162,0.1621,0.1621,0.1622,0.1713,0.1715,0.1717,0,0,0,0,0,0,0,0,0,0,0,0,0,0.1465,0.142,0.15,0.1537,0.1541,0.1569,0.1569,0.157,0.162,0.1621,0.1622,0.1622,0.1712,0.1715,0.1718,0.1715,0,0,0.1726,0.1727,0,0,0,0,0,0,0,0,0.1463,0.1468,0.1531,0.1535,0.1539,0.1589,0.1575,0.1621,0.1619,0.1587,0.1622,0.1623,0.1675,0.1681,0.1688,0.172,0.1724,0.1726,0.1728,0.1729,0.173,0,0,0,0,0,0,0,0.1459,0.1465,0.1525,0.1532,0.1537,0.1553,0.156,0.1583,0.1623,0.159,0.1595,0.1606,0.1677,0.1685,0.169,0.1725,0.1726,0.1729,0.173,0.1732,0.1855,0.1857,0,0,0,0,0,0,0.1454,0.1462,0.1523,0.1527,0.1505,0.1553,0.1561,0.157,0.1623,0.1632,0.1605,0.1608,0.168,0.1687,0.1694,0.1786,0.1729,0.1732,0.1733,0.1853,0.1855,0.1857,0,0,0,0,0,0,0.1452,0.1459,0.152,0.1498,0.1508,0.1554,0.1563,0.1571,0.1615,0.1634,0.1644,0.1645,0.1681,0.169,0.1749,0.1787,0.1733,0.1736,0.1852,0.1854,0.1856,0.1912,0,0,0,0,0,0,0.145,0.1458,0.1478,0.1498,0.1509,0.1557,0.1563,0.1572,0.1619,0.1625,0.1671,0.1679,0.1682,0.1745,0.1752,0.1789,0.1738,0.1849,0.1853,0.1856,0.1908,0.1916,0.1923,0,0,0,0,0,0.1446,0.1464,0.1478,0.1487,0.153,0.1558,0.1565,0.1599,0.1621,0.1642,0.1681,0.1679,0.1769,0.1749,0.1756,0.1796,0.1848,0.1852,0.1855,0.1905,0.1914,0.1923,0,0,0,0,0,0,0.1441,0.1472,0.1488,0.1515,0.1545,0.1568,0.1597,0.1619,0.1666,0.1683,0.1701,0.1711,0.1778,0.1779,0.1756,0.184,0.1808,0.1813,0.1843,0.1852,0.1859,0.1859,0.174,0,0,0,0,0,0.1448,0.1473,0.15,0.1527,0.1545,0.1578,0.1602,0.1624,0.166,0.1683,0.1719,0.1756,0.1792,0.1817,0.1846,0.1891,0.1898,0.1921,0.1928,0.1934,0.1939,0.1985,0.1997,0.1869,0.1869,0.1869,0,0,0.1453,0.1476,0.1491,0.1529,0.1557,0.1589,0.1596,0.1639,0.1677,0.1685,0.1761,0.1789,0.1812,0.1866,0.1895,0.1875,0.1976,0.1939,0.1944,0.1946,0.199,0.2003,0.2014,0.1872,0.1871,0.1871,0,0,0.1468,0.1499,0.1522,0.1551,0.1599,0.1619,0.164,0.1685,0.172,0.1782,0.1803,0.1854,0.191,0.1933,0.1949,0.2014,0.2017,0.2029,0.2065,0.2109,0.212,0.213,0.2159,0.2171,0.2029,0.2029,0.2029,0,0.1478,0.1508,0.1535,0.1567,0.1597,0.1638,0.1671,0.171,0.1773,0.1806,0.1817,0.1917,0.1938,0.2001,0.2026,0.2031,0.2054,0.2028,0.2119,0.2128,0.2137,0.2165,0.2177,0.2032,0.2032,0.2031,0.2031,0,0.1501,0.1539,0.1559,0.1612,0.1647,0.1684,0.1734,0.1788,0.1837,0.1871,0.1957,0.199,0.2048,0.2064,0.2067,0.2144,0.214,0.2126,0.2094,0.2153,0.2179,0.2191,0.2036,0.2035,0.2034,0.2034,0,0,0.1484,0.1559,0.1572,0.1603,0.1674,0.1701,0.1777,0.1842,0.1899,0.1965,0.2035,0.2099,0.2126,0.2146,0.2163,0.2198,0.2281,0.2195,0.2196,0.2221,0.2382,0.223,0.2228,0.2291,0.2293,0.2295,0.2376,0,0.1498,0.1556,0.1596,0.1662,0.1692,0.1757,0.1819,0.1889,0.1954,0.2035,0.2085,0.2159,0.2155,0.2196,0.2234,0.2277,0.2315,0.226,0.2324,0.2326,0.218,0.2237,0.2302,0.2385,0.2388,0.239,0.2391,0,0.1501,0.1542,0.1602,0.1683,0.1705,0.1759,0.1865,0.1925,0.2037,0.2092,0.2172,0.2218,0.2303,0.2283,0.2383,0.2354,0.2378,0.2395,0.2398,0.2242,0.2194,0.2314,0.2412,0.241,0.2409,0.2407,0.2406,0,0.1457,0.1544,0.1593,0.1622,0.1721,0.1776,0.1841,0.1948,0.2014,0.214,0.2207,0.2296,0.2369,0.2414,0.2462,0.244,0.2555,0.2522,0.2404,0.2394,0.2482,0.2471,0.2587,0.2587,0.2587,0.2587,0.2587,0,0.1434,0.148,0.1585,0.1612,0.1684,0.1762,0.1854,0.1935,0.2059,0.2133,0.2239,0.2307,0.2411,0.2484,0.2499,0.2489,0.2591,0.2419,0.2407,0.2504,0.2494,0.249,0.2478,0.259,0.2589,0.2589,0.2588,0,0.1375,0.1444,0.1504,0.162,0.1663,0.1718,0.1861,0.1921,0.2054,0.216,0.2211,0.2358,0.2439,0.2514,0.2595,0.2528,0.2534,0.2505,0.2616,0.2608,0.2333,0.2324,0.237,0.2365,0.2361,0.2358,0.2355,0,0.1346,0.1371,0.1496,0.1539,0.16,0.1697,0.1761,0.1905,0.1969,0.2162,0.2199,0.2343,0.2416,0.2414,0.2494,0.2511,0.2481,0.2468,0.2379,0.2329,0.2314,0.231,0.2305,0.2349,0.2348,0.2347,0.2346,0,0.1286,0.1344,0.1394,0.1479,0.1557,0.1626,0.1732,0.177,0.1926,0.2071,0.2137,0.2184,0.2272,0.2316,0.2356,0.2359,0.2462,0.2426,0.2433,0.2349,0.2304,0.2292,0.2292,0.2332,0.2334,0.2335,0.2336,0,0.1245,0.1265,0.1338,0.1404,0.1492,0.1531,0.1595,0.167,0.1751,0.1958,0.1972,0.2116,0.2247,0.2239,0.2272,0.2268,0.2222,0.2138,0.2159,0.2176,0.2071,0.1983,0.1909,0,0,0,0,0,0.1195,0.1212,0.1259,0.1319,0.1398,0.145,0.1565,0.1631,0.1783,0.1781,0.1872,0.1937,0.1989,0.2064,0.2019,0.2182,0.223,0.2119,0.2144,0.2256,0.2272,0.2166,0,0,0,0,0,0,0.1164,0.1207,0.1223,0.1234,0.126,0.1331,0.1396,0.1495,0.15,0.1661,0.17,0.1822,0.1901,0.1997,0.1984,0.2005,0.198,0.2211,0.2206,0.2247,0.2262,0.2274,0.217,0,0,0,0,0]},{"header":{"parameterUnit":"m.s-1","parameterCategory":2,"la1":30.2991,"la2":30.254,"lo1":-89.0895,"lo2":-89.0444,"dy":0.0017,"dx":0.0017,"nx":28,"ny":28,"refTime":"2026-01-04T03:00:00:Z","depth":"4","parameterNumber":3,"parameterNumberName":"V-component_of_CURRENTS"},"data":[0,0,0,0,0,0,0,0,0,0,0,0,0,0,0,0,0,0,0,0,0,0,0,0,0,0,0,0,0,0,0,0,0,0,0,0,0,0,0,0,0,0,0,0,0,0,0,0,0,0,0,0,0,0,0,0,0,0,0.0272,0.0272,0,0.0248,0.0248,0.0248,0.0238,0.0238,0.0238,0.0238,0.0194,0.0193,0.0192,0,0,0,0,0,0,0,0,0,0,0,0,0,0.0272,0.0272,0.0272,0.0272,0.0271,0.0248,0.0248,0.0248,0.0238,0.0238,0.0238,0.0238,0.0195,0.0193,0.0192,0,0,0,0,0,0,0,0,0,0,0,0,0,0.0263,0.0272,0.0272,0.0263,0.0262,0.0248,0.0248,0.0248,0.0238,0.0238,0.0238,0.0238,0.0195,0.0194,0.0192,0.0182,0,0,0.0187,0.0186,0,0,0,0,0,0,0,0,0.0264,0.0263,0.0265,0.0264,0.0263,0.0245,0.0232,0.0224,0.0238,0.0248,0.0238,0.0238,0.0209,0.0206,0.0203,0.018,0.0178,0.0187,0.0185,0.0185,0.0184,0,0,0,0,0,0,0,0.0264,0.0264,0.0264,0.0264,0.0263,0.0247,0.0247,0.023,0.0229,0.0247,0.0246,0.0242,0.0208,0.0205,0.0202,0.0177,0.0187,0.0185,0.0184,0.0183,0.0151,0.0151,0,0,0,0,0,0,0.0268,0.0265,0.0264,0.0263,0.0262,0.0248,0.0247,0.0252,0.023,0.0226,0.0242,0.0242,0.0208,0.0204,0.0201,0.0201,0.0185,0.0183,0.0182,0.0151,0.0151,0.0151,0,0,0,0,0,0,0.0268,0.0268,0.0265,0.0262,0.026,0.0248,0.0253,0.0251,0.025,0.0226,0.0223,0.0244,0.0208,0.0203,0.0191,0.0199,0.0182,0.0181,0.015,0.0151,0.0151,0.0194,0,0,0,0,0,0,0.0268,0.0269,0.0276,0.0263,0.0261,0.0265,0.0253,0.0251,0.0247,0.0247,0.0226,0.0222,0.0207,0.0194,0.019,0.0196,0.0179,0.015,0.0151,0.0151,0.0192,0.0196,0.0198,0,0,0,0,0,0.0269,0.0281,0.0276,0.0276,0.027,0.0265,0.0263,0.0253,0.0248,0.0252,0.0237,0.0223,0.0193,0.0193,0.0188,0.0194,0.015,0.015,0.0151,0.0191,0.0195,0.0198,0,0,0,0,0,0,0.0284,0.0281,0.0275,0.0286,0.0278,0.0263,0.0266,0.0257,0.0248,0.0249,0.0225,0.0219,0.0213,0.0196,0.0196,0.0185,0.0169,0.0169,0.0202,0.0205,0.0208,0.0219,0.0178,0,0,0,0,0,0.0291,0.03,0.0288,0.0297,0.0295,0.0281,0.0277,0.0272,0.026,0.0257,0.0242,0.0225,0.0209,0.0202,0.0187,0.018,0.015,0.018,0.0183,0.0186,0.0191,0.0149,0.0149,0.0152,0.0152,0.0152,0,0,0.0298,0.0297,0.0302,0.0301,0.0295,0.03,0.0279,0.0281,0.0285,0.0253,0.0256,0.0236,0.0209,0.0204,0.0199,0.0192,0.0169,0.0187,0.0189,0.0192,0.015,0.0149,0.0149,0.0152,0.0152,0.0152,0,0,0.0318,0.0319,0.0332,0.033,0.0324,0.0318,0.0319,0.0309,0.0305,0.0301,0.0279,0.0264,0.0243,0.0226,0.0214,0.0223,0.0186,0.0218,0.0243,0.0203,0.0202,0.0201,0.0159,0.0154,0.022,0.022,0.022,0,0.0327,0.0345,0.0334,0.0345,0.0349,0.0328,0.0344,0.0335,0.0322,0.0319,0.0309,0.0275,0.0253,0.024,0.0244,0.0231,0.02,0.0232,0.0207,0.0205,0.0204,0.0161,0.0155,0.0222,0.0222,0.0222,0.0222,0,0.0355,0.0369,0.0378,0.0388,0.039,0.0401,0.0388,0.0387,0.0377,0.0365,0.0352,0.0319,0.0299,0.0287,0.0269,0.025,0.0229,0.0215,0.0199,0.0206,0.016,0.0153,0.0225,0.0225,0.0224,0.0223,0,0,0.0374,0.0395,0.0398,0.0415,0.0417,0.0424,0.0429,0.0429,0.0435,0.041,0.041,0.0376,0.0355,0.0339,0.0309,0.0274,0.0234,0.0245,0.0241,0.0206,0.014,0.0125,0.0115,0.0213,0.0213,0.0212,0.0112,0,0.04,0.0436,0.0438,0.0473,0.0493,0.0481,0.049,0.0484,0.0473,0.0466,0.0421,0.0411,0.0374,0.0367,0.0325,0.026,0.0218,0.0262,0.0136,0.0133,0.012,0.0107,0.0209,0.0107,0.0105,0.0104,0.0103,0,0.0423,0.0449,0.0491,0.0525,0.0532,0.0549,0.0565,0.0569,0.0546,0.0536,0.0508,0.0474,0.0424,0.0392,0.0275,0.0304,0.0228,0.017,0.0164,0.0131,0.0104,0.0097,0.0089,0.009,0.0091,0.0092,0.0093,0,0.0445,0.0485,0.0527,0.0537,0.0567,0.0585,0.0597,0.0591,0.0607,0.058,0.0584,0.0514,0.0484,0.0382,0.0265,0.0267,0.0128,0.0114,0.0024,0.0022,0.0047,0.0049,0.0025,0.0025,0.0026,0.0026,0.0026,0,0.047,0.0502,0.0543,0.0566,0.0616,0.062,0.0665,0.066,0.0666,0.0684,0.0625,0.0613,0.048,0.0388,0.0274,0.0127,0.0129,0.0024,-0.0005,0.0067,0.0073,0.0042,0.0045,0.0022,0.0023,0.0024,0.0024,0,0.0482,0.0508,0.0561,0.0609,0.0629,0.0663,0.0719,0.0745,0.0742,0.0762,0.0758,0.0682,0.0557,0.0416,0.0243,0.0144,0.0004,-0.005,0.0038,0.0015,-0.0079,-0.0072,-0.0161,-0.0162,-0.0164,-0.0165,-0.0165,0,0.0491,0.052,0.0594,0.0632,0.0659,0.0714,0.0753,0.0779,0.0809,0.08,0.0807,0.0707,0.0634,0.0381,0.0225,-0.0002,-0.0034,-0.0111,-0.0096,-0.0078,-0.0099,-0.009,-0.0082,-0.0167,-0.0168,-0.0168,-0.0168,0,0.0506,0.0536,0.058,0.0657,0.0713,0.0779,0.0835,0.0865,0.0885,0.0893,0.0843,0.0717,0.0571,0.0377,0.02,0.0039,-0.0063,-0.0124,-0.0123,-0.0109,-0.0087,-0.0104,-0.0095,-0.0172,-0.0172,-0.0171,-0.0171,0,0.0516,0.0546,0.0604,0.067,0.0745,0.0807,0.0846,0.0876,0.0904,0.0898,0.0875,0.0724,0.0641,0.0396,0.0234,0.0073,0.003,-0.0024,-0.0029,-0.0026,0.0043,0.0093,0.0034,0,0,0,0,0,0.0515,0.0544,0.061,0.068,0.0757,0.0802,0.088,0.0912,0.0941,0.0912,0.0897,0.0763,0.0519,0.0415,0.025,0.02,-0.0005,-0.0,-0.0071,-0.0195,-0.019,-0.0133,0,0,0,0,0,0,0.051,0.0566,0.0599,0.0674,0.0724,0.0808,0.0861,0.0889,0.0876,0.0881,0.0758,0.0708,0.0475,0.0609,0.0241,0.0193,0.0122,-0.0106,-0.011,-0.0198,-0.0193,-0.019,-0.013,0,0,0,0,0]}]]